Home > Weather > Kryvyi Rih > Past weeks

Flag for Ukraine Weather for the Past 2 Weeks in Kryvyi Rih, Ukraine

Now
50 °F

Passing clouds.


Feels Like: 48 °F
Forecast: 55 / 67 °F
Wind: 6 mph from Northeast

Location: Krivyy Rih / Dnipropetrovs'k

Current Time: May 4, 2016 at 3:58:15 AM

Latest Report: May 4, 2016 at 3:30 AM


Visibility: N/A

Pressure: 29.83 "Hg

Humidity: 67%

Dew Point: 39 °F

Location of Kryvyi RihLocation

Historic Weather in Kryvyi Rih — Graph

°F

Kryvyi Rih Temperature Yesterday

Maximum temperature yesterday: 68 °F (at 2:00 PM)
Minimum temperature yesterday: 46 °F (at 4:00 AM)
Average temperature yesterday: 58 °F

High & Low Weather Summary for the Past Weeks

 TemperatureHumidityPressure
High70 °F (Apr 29, 2:00 PM)100% (Apr 26, 1:00 AM)30.21 "Hg (Apr 26, 1:00 AM)
Low34 °F (Apr 22, 2:00 AM)30% (May 2, 4:00 PM)29.45 "Hg (Apr 25, 10:00 AM)
Average54 °F66%29.90 "Hg
* Reported Apr 19 3:00 AM — May 4 3:00 AM, Kryvyi Rih, Weather by CustomWeather, © 2016

Note: Actual official high and low records may vary slightly from our data, if they occured in-between our weather recording intervals... More about our weather records

Advertising

Kryvyi Rih Weather History for the Previous 24 Hours

Scroll right to see more
 ConditionsComfort  
Time TempWeatherWind HumidityBarometerVisibility
3:00 AM
Wed, May 4
50 °FPassing clouds.6 mph67%29.83 "HgN/A
2:30 AM52 °FPassing clouds.6 mph58%29.86 "HgN/A
2:00 AM52 °FPassing clouds.6 mph58%29.83 "HgN/A
1:00 AM50 °FPassing clouds.6 mph62%29.86 "HgN/A
12:30 AM55 °FPassing clouds.8 mph51%29.86 "HgN/A
12:00 AM55 °FPassing clouds.8 mph51%29.86 "HgN/A
11:30 PM
Tue, May 3
54 °FPassing clouds.8 mph54%29.86 "HgN/A
11:00 PM54 °FPassing clouds.8 mph54%29.89 "HgN/A
10:30 PM55 °FPassing clouds.8 mph55%29.86 "HgN/A
10:00 PM55 °FPassing clouds.8 mph55%29.89 "HgN/A
9:30 PM59 °FPassing clouds.8 mph51%29.89 "HgN/A
9:00 PM59 °FPassing clouds.8 mph51%29.86 "HgN/A
8:30 PM59 °FPassing clouds.6 mph48%29.86 "HgN/A
8:00 PM59 °FPassing clouds.6 mph48%29.89 "HgN/A
7:30 PM63 °FPassing clouds.6 mph39%29.89 "HgN/A
7:00 PM63 °FPassing clouds.8 mph39%29.89 "HgN/A
6:30 PM66 °FPassing clouds.8 mph35%29.89 "HgN/A
6:00 PM66 °FPassing clouds.10 mph35%29.89 "HgN/A
5:30 PM68 °FPassing clouds.13 mph35%29.89 "HgN/A
5:00 PM68 °FPassing clouds.13 mph35%29.92 "HgN/A
4:30 PM66 °FPassing clouds.10 mph37%29.92 "HgN/A
4:00 PM66 °FPassing clouds.13 mph37%29.92 "HgN/A
3:30 PM66 °FPassing clouds.10 mph40%29.92 "HgN/A
2:30 PM68 °FPartly sunny.15 mph33%29.95 "HgN/A
2:00 PM68 °FPartly sunny.15 mph33%29.95 "HgN/A
1:30 PM66 °FPartly sunny.13 mph35%29.98 "HgN/A
1:00 PM66 °FPartly sunny.13 mph35%29.98 "HgN/A
12:00 PM63 °FPartly sunny.15 mph37%30.01 "HgN/A
11:30 AM64 °FPassing clouds.13 mph40%30.01 "HgN/A
11:00 AM64 °FPassing clouds.13 mph40%30.01 "HgN/A
10:30 AM63 °FPassing clouds.13 mph45%30.04 "HgN/A
10:00 AM63 °FPassing clouds.10 mph45%30.04 "HgN/A
9:30 AM59 °FPassing clouds.8 mph48%30.04 "HgN/A
9:00 AM59 °FPassing clouds.8 mph48%30.04 "HgN/A
8:30 AM54 °FPassing clouds.8 mph58%30.04 "HgN/A
8:00 AM54 °FPassing clouds.8 mph58%30.04 "HgN/A
7:30 AM50 °FPassing clouds.6 mph62%30.04 "HgN/A
7:00 AM50 °FPassing clouds.6 mph62%30.04 "HgN/A
6:00 AM46 °FClear.3 mph66%30.04 "Hg10 mi
5:30 AM46 °FPassing clouds.3 mph62%30.04 "HgN/A
4:30 AM46 °FPassing clouds.3 mph62%30.04 "HgN/A
4:00 AM46 °FClear.1 mph62%30.04 "Hg10 mi
3:30 AM52 °FClear.No wind50%30.04 "Hg10 mi
3:00 AM52 °FClear.No wind50%30.07 "Hg10 mi
Weather by CustomWeather, © 2016

See weather overviewHow to use our weather pages